Kuiper-00112

operational
NORAD ID: 65150 Int'l Des: 2025-171 Owner: KUIP Country: US Constellation: kuiper
LEOCIRCULAR

About Kuiper-00112

Description loading...

Live Position

Loading 3D Globe...

Upcoming Passes

Altitude History

Altitude vs Time

uPlot chart will show altitude changes over time

Two-Line Element Set

1 65150U 25171U 25303.25002315 -.00853014 00000-0 -30281-1 0 9992
2 65150 51.8787 20.1358 0007913 83.4472 354.1064 15.31108258 5194
Epoch: Oct 30, 2025 • Age: 11 hours

Current Status

Altitude 476.1 km
Velocity 7.63 km/s
Sub-Earth Point 0.51°N, 102.99°W
Launch Date Aug 11, 2025
Age 0.2 years
Type internet

Technical Details

Classification Payload
Mass 490.00 kg
Dry Mass 490.00 kg
Total Mass 490.00 kg
Length 1.80 m
Diameter 0.70 m
Span 5.00 m
Shape Box + 2 pan
Manufacturer KUIP
Bus Type Kuiper
Phase Status In Orbit
Owner/State KUIP/US

Large Constellations

Loading constellations...